Waukesha, WI

9:55 AM CDT on June 22, 2017 (GMT -0500)
Waukesha County

Weather History for KUES - January, 2012

Change the Weather History Date:

Thursday, January 26, 2012

  Actual Average Record
Temperature  
Mean Temperature 30 °F -  
Max Temperature 33 °F 26 °F 55 °F (1973)
Min Temperature 28 °F 10 °F -10 °F (1957)
Degree Days  
Heating Degree Days 34    
Moisture  
Dew Point 29 °F    
Average Humidity 97    
Maximum Humidity 100    
Minimum Humidity 93    
Precipitation  
Precipitation 0.00 in - - ()
Sea Level Pressure  
Sea Level Pressure 29.79 in    
Wind  
Wind Speed 6 mph (SW)    
Max Wind Speed 14 mph    
Max Gust Speed -    
Visibility 3 miles    
Events Fog    
Averages and records for this station are not official NWS values.
T = Trace of Precipitation, MM = Missing Value Source: NWS Daily Summary

Daily Weather History Graph

Daily Weather History Graph

Search for Another Location

Airport or City:

Trip Planner

Search our weather history database for the weather conditions in past years. The results will help you decide how hot, cold, wet, or windy it might be!

Date:

Astronomy

Jan. 26, 2012 Rise Set
Actual Time 7:14 AM CST 4:56 PM CST
Civil Twilight 6:43 AM CST 5:27 PM CST
Nautical Twilight 6:09 AM CST 6:02 PM CST
Astronomical Twilight 5:35 AM CST 6:35 PM CST
Moon 8:34 AM CST (1/26) 8:57 PM CST (1/26)
Length of Visible Light 10h 43m
Length of Day
9h 42m
Waxing Crescent, 12% of the Moon is Illuminated
Jan 26
Waxing Crescent
Jan 30
First Quarter
Feb 7
Full
Feb 14
Last Quarter
Feb 21
New

Hourly Weather History & Observations

Time (CST) Temp. Windchill Dew Point Humidity Pressure Visibility Wind Dir Wind Speed Gust Speed Precip Events Conditions
12:15 AM 28.4 °F 19.7 °F 26.6 °F 93% 30.03 in 4.0 mi South 9.2 mph - N/A   Overcast
12:35 AM 28.4 °F 21.2 °F 26.6 °F 93% 30.02 in 4.0 mi South 6.9 mph - N/A   Overcast
1:15 AM 28.4 °F 20.4 °F 28.4 °F 100% 30.01 in 4.0 mi South 8.1 mph - N/A   Overcast
1:35 AM 28.4 °F 23.3 °F 28.4 °F 100% 30.01 in 4.0 mi South 4.6 mph - N/A   Overcast
1:55 AM 28.4 °F 20.4 °F 28.4 °F 100% 30.01 in 4.0 mi South 8.1 mph - N/A   Overcast
2:15 AM 28.4 °F 20.4 °F 28.4 °F 100% 30.00 in 4.0 mi South 8.1 mph - N/A   Overcast
3:15 AM 28.4 °F 21.2 °F 28.4 °F 100% 29.96 in 1.5 mi South 6.9 mph - N/A   Overcast
3:35 AM 28.4 °F 23.3 °F 28.4 °F 100% 29.96 in 1.0 mi SSW 4.6 mph - N/A   Overcast
3:55 AM 28.4 °F 23.3 °F 28.4 °F 100% 29.93 in 0.8 mi South 4.6 mph - N/A   Overcast
4:15 AM 28.4 °F 23.3 °F 28.4 °F 100% 29.92 in 0.5 mi SSW 4.6 mph - N/A Fog Light Freezing Fog
4:35 AM 28.4 °F 23.3 °F 28.4 °F 100% 29.92 in 0.8 mi SW 4.6 mph - N/A   Overcast
5:45 AM 28.4 °F - 28.4 °F 100% 29.92 in 2.0 mi Calm Calm - N/A   Overcast
6:45 AM 28.4 °F - 28.4 °F 100% 29.90 in 2.0 mi Calm Calm - N/A   Overcast
7:05 AM 28.4 °F - 28.4 °F 100% 29.89 in 0.8 mi Calm Calm - N/A   Overcast
7:45 AM 28.4 °F - 28.4 °F 100% 29.90 in 1.0 mi Calm Calm - N/A   Overcast
8:45 AM 28.4 °F - 28.4 °F 100% 29.87 in 3.0 mi Calm Calm - N/A   Overcast
9:45 AM 28.4 °F 22.2 °F 28.4 °F 100% 29.85 in 2.5 mi South 5.8 mph - N/A   Overcast
10:45 AM 30.2 °F 24.3 °F 28.4 °F 93% 29.81 in 2.5 mi SSE 5.8 mph - N/A   Overcast
11:45 AM 30.2 °F 24.3 °F 28.4 °F 93% 29.80 in 3.0 mi SSE 5.8 mph - N/A   Overcast
12:45 PM 30.2 °F 25.4 °F 30.2 °F 100% 29.74 in 3.0 mi SSE 4.6 mph - N/A   Overcast
1:45 PM 32.0 °F - 30.2 °F 93% 29.71 in 2.5 mi Calm Calm - N/A   Overcast
2:45 PM 33.8 °F - 32.0 °F 93% 29.70 in 2.5 mi Calm Calm - N/A   Overcast
3:45 PM 33.8 °F - 32.0 °F 93% 29.68 in 4.0 mi Calm Calm - N/A   Overcast
4:45 PM 32.0 °F 28.7 °F 32.0 °F 100% 29.68 in 1.8 mi SSW 3.5 mph - N/A   Overcast
5:45 PM 32.0 °F 28.7 °F 32.0 °F 100% 29.68 in 2.5 mi SW 3.5 mph - N/A   Overcast
6:45 PM 32.0 °F 27.5 °F 32.0 °F 100% 29.67 in 2.5 mi West 4.6 mph - N/A   Overcast
7:45 PM 32.0 °F 26.4 °F 30.2 °F 93% 29.65 in 5.0 mi West 5.8 mph - N/A   Overcast
8:15 PM 32.0 °F 23.6 °F 30.2 °F 93% 29.65 in 5.0 mi West 10.4 mph - N/A   Overcast
8:35 PM 32.0 °F 24.8 °F 30.2 °F 93% 29.64 in 5.0 mi WNW 8.1 mph - N/A   Overcast
8:45 PM 32.0 °F 23.0 °F 30.2 °F 93% 29.64 in 4.0 mi WNW 11.5 mph - N/A   Overcast
9:15 PM 32.0 °F 22.1 °F 30.2 °F 93% 29.65 in 5.0 mi WNW 13.8 mph - N/A   Overcast
9:35 PM 32.0 °F 22.5 °F 30.2 °F 93% 29.64 in 4.0 mi WNW 12.7 mph - N/A   Overcast
9:55 PM 30.2 °F 21.9 °F 30.2 °F 100% 29.63 in 5.0 mi WNW 9.2 mph - N/A   Overcast
10:15 PM 30.2 °F 23.4 °F 30.2 °F 100% 29.63 in 4.0 mi NW 6.9 mph - N/A   Overcast
10:35 PM 32.0 °F 24.2 °F 30.2 °F 93% 29.63 in 4.0 mi NW 9.2 mph - N/A   Overcast
10:55 PM 32.0 °F 24.8 °F 30.2 °F 93% 29.63 in 4.0 mi NW 8.1 mph - N/A   Overcast
11:15 PM 32.0 °F 24.8 °F 30.2 °F 93% 29.63 in 4.0 mi NW 8.1 mph - N/A   Overcast
11:35 PM 32.0 °F 23.0 °F 30.2 °F 93% 29.64 in 4.0 mi NW 11.5 mph - N/A   Overcast
11:55 PM 32.0 °F 24.8 °F 30.2 °F 93% 29.64 in 5.0 mi NW 8.1 mph - N/A   Overcast